www.pogodaiklimat.ru

Погода и климат >> Архив погоды >> Мексика >> Альтар


ПОГОДА в Альтаре

  • Прогноз погоды в Альтаре
  • Монитор погоды в Альтаре

АРХИВ ПОГОДЫ в Альтаре

Время (UTC), дата Ветер
(напр.,м/с)
 
Видим.   Явления Облачность Т
(С)
Тd
(С)
f
(%)
Тe
(С)
Тes
(С)
Комфортность P
(гПа)
Po
(гПа)
Тmin
(С)
Tmax
(С)
R
(мм)
R24
(мм)
S
(см)
18 17.06 ЮВ 1 30 км ясно +36.6 +6.6 16 +34 +57 опасность
солнечного
удара
1005.1 961.8 +20.4 +37.0
21 17.06 Ю 3 30 км ясно +40.8 +11.8 18 +40 +56 опасность
солнечного
удара
1004.1 962.0
00 18.06 Ю 2 30 км ясно +39.6 +6.6 13 +37 +42 очень
жарко
1003.9 961.6 +20.4 +41.4
03 18.06 З 3 30 км ясно +33.0 +8.6 22 +32 +32 жарко 1004.4 961.2
12 18.06 СВ 1 30 км ясно +19.2 +6.3 43 +21 +21 комфорт 1008.0 962.7 +19.0 +41.4
15 18.06 СВ 1 30 км ясно +25.6 +7.5 32 +26 +33 жарко 1009.3 963.9
18 18.06 З 1 30 км ясно +36.2 +7.0 17 +34 +57 опасность
солнечного
удара
1007.7 963.9 +18.6 +37.0
21 18.06 З 3 30 км ясно +39.0 +1.3 10 +35 +51 опасность
солнечного
удара
1007.8 965.3
00 19.06 ЮЗ 2 30 км ясно +39.0 +5.3 13 +36 +42 очень
жарко
1006.2 963.7 +18.0 +40.0
03 19.06 З 4 20 км ясно +33.0 -2.1 10 +29 +29 жарко 1007.8 964.5
12 19.06 СВ 1 30 км ясно +18.2 -0.3 29 +19 +19 1010.7 965.1 +18.0 +40.0
15 19.06 СВ 1 30 км ясно +24.8 +0.4 20 +23 +30 комфорт 1011.6 966.1
18 19.06 ЮВ 1 30 км ясно +36.8 +4.9 14 +34 +57 опасность
солнечного
удара
1009.5 965.3 +17.8 +37.0
21 19.06 СЗ 1 30 км ясно +38.5 +4.1 12 +35 +58 опасность
солнечного
удара
1006.8 964.1
00 20.06 З 4 30 км ясно +39.4 +34 +38 очень
жарко
1006.2 963.8 +17.8 +40.7
03 20.06 З 3 20 км ясно +33.0 -4.6 9 +29 +29 жарко 1007.3 964.0
12 20.06 В 1 30 км ясно +19.2 -2.7 23 +20 +20 1008.8 963.5 +19.0 +40.7
15 20.06 СВ 1 30 км ясно +25.2 -1.0 18 +23 +30 комфорт 1010.1 964.7
18 20.06 Ю 1 30 км ясно +36.4 +3.3 13 +33 +56 опасность
солнечного
удара
1007.2 963.7 +37.0
21 20.06 ЮЗ 2 30 км ясно +40.0 +7.5 14 +38 +57 опасность
солнечного
удара
1005.8 963.5
00 21.06 ЮЗ 5 30 км ясно +38.8 -2.1 8 +35 +38 очень
жарко
1004.8 962.4 +18.8 +40.6
03 21.06 З 4 20 км ясно +32.0 -2.6 11 +28 +28 жарко 1006.0 962.6
12 21.06 СВ 1 30 км ясно +18.6 +0.4 29 +20 +20 1006.6 961.2 +18.5 +40.6
15 21.06 СВ 1 30 км ясно +25.0 +2.2 23 +24 +31 комфорт 1007.6 962.2
18 21.06 ЮВ 1 30 км ясно +35.8 +4.8 15 +33 +56 опасность
солнечного
удара
1007.7 962.3 +18.2 +36.0
21 21.06 ЮЗ 2 30 км ясно +38.6 +7.5 15 +36 +55 опасность
солнечного
удара
1005.3 962.8
00 22.06 ЮЗ 6 30 км ясно +37.0 +7.4 16 +35 +37 очень
жарко
1003.8 961.2 +18.2 +39.7
03 22.06 ЮЗ 4 30 км ясно +32.0 +6.8 21 +30 +30 жарко 1004.6 961.3
12 24.06 СВ 1 10 км ясно +20.0 -3.4 20 +21 +21 комфорт 1010.1 964.8 +16.6 +38.0
15 24.06 СВ 1 30 км ясно +22.5 +7.4 38 +23 +30 комфорт 1009.7 964.8

 

Местоположение метеостанции Альтар (Мексика): широта 30.71 долгота -111.84 высота над уровнем моря 397 м.

В архиве по умолчанию представлена погода в Альтаре за последнюю неделю. Архивные данные за месяц целиком и за предыдущие месяцы, начиная с января 2011 года, Вы можете получить, выбрав интересующий диапазон дат из раскрывающегося списка и нажав кнопку "Ввод!".


*Определитесь, кто Вы:
робот инопланетянин человек

Внимание! Время в таблицах - всемирное. Для получения местного времени необходимо прибавить поправку, которая равна -8 ч.

Смотрите также архив погоды в соседних городах и на ближайших метеорологических станциях:

Погода в Пуэрто-Пеньяско (Мексика) (176 км)
Погода в Эрмосильо (Мексика) (196 км)
Погода в Эрмосильо Магна (Мексика) (201 км)
Погода в Накосари де Гарсия (Мексика) (210 км)
Погода в Сан-Фелипе (Мексика) (285 км)
Погода в Гуаймасе (Мексика) (324 км)
Погода в Эмпальме (Мексика) (326 км)
Погода в Нуэво Леон (Мексика) (362 км)
Погода в Нуэво-Касас-Грандесе (Мексика) (379 км)
Погода в Санта-Розалии (Мексика) (384 км)

Пояснения к столбцам:

Ветер - указаны скорость ветра в м/с - средняя за 10 мин, порывы в срок и между сроками (в фигурных скобках) и направление, откуда дует ветер: С - северный, СВ - северо-восточный, В - восточный, ЮВ - юго-восточный, Ю - южный, ЮЗ - юго-западный, З - западный, СЗ - северо-западный.
Видимость - горизонтальная дальность видимости в метрах или километрах. При видимости от 1 до 10 км при отсутствии осадков обычно наблюдается дымка, при ухудшении видимости до 1 км и менее - туман. В сухую погоду видимость может ухудшаться дымом, пылью или мглою.
Явления - указаны атмосферные явления, наблюдавшиеся в срок или в последний час перед сроком; фигурными скобками обозначены явления, наблюдавшиеся между сроками (за 1-3 часа до срока); квадратными скобками обозначены град или гололедные отложения с указанием их диаметра в мм.
Облачность - указаны через наклонную черту общая и нижняя облачность в баллах и высота нижней границы облаков в метрах; квадратными скобками обозначены формы облаков: Ci - перистые, Cs - перисто-слоистые, Cc - перисто-кучевые, Ac - высококучевые, As - высокослоистые, Sc - слоисто-кучевые, Ns - слоисто-дождевые, Cu - кучевые, Cb - кучево-дождевые. Подробнее классификацию облаков см. в Атласе облаков (PDF).
T - Температура воздуха - температура, измеренная на высоте 2 м над землей.
Td - Температура точки росы - температура, при понижении до которой содержащийся в воздухе водяной пар достигнет насыщения.
f - Относительная влажность воздуха - влажноcть воздуха, измеренная на высоте 2 м над землей.
Te - Эффективная температура - температура, которую ощущает одетый по сезону человек в тени. Характеристика душности погоды. При расчете учитывается влияние влажности воздуха и скорости ветра на теплоощущения человека.
Tes - Эффективная температура на солнце - температура, которую ощущает человек, с поправкой на солнечный нагрев. Характеристика знойности погоды. Зависит от высоты солнца над горизонтом, облачности и скорости ветра. Ночью, в пасмурную погоду, а также при ветре 12 м/с и более поправка равна нулю.
P - Атмосферное давление - приведенное к уровню моря атмосферное давление.
Po - Атмосферное давление - измеренное на уровне метеостанции атмосферное давление.
Tmin - Минимальная температура - минимум температуры воздуха на высоте 2 м над землей.
Tmax - Максимальная температура - максимум температуры воздуха на высоте 2 м над землей.
R - Количество осадков - Количество выпавших осадков за период времени, мм. При наведении курсора мыши на число - период времени, за который выпало указанное количество осадков.
R24 - Количество осадков - Количество выпавших осадков за 24 часа, мм.
S - Снежный покров - Высота снежного покрова, см. При наведении курсора мыши на число - состояние снежного покрова и степень покрытия местности в баллах.